Weather History for KMKE - July, 2013

Change the Weather History Date:

Wednesday, July 24, 2013

  Actual Average Record
Temperature  
Mean Temperature 64 °F 72 °F  
Max Temperature 70 °F 80 °F 105 °F (1934)
Min Temperature 57 °F 64 °F 51 °F (2000)
Degree Days  
Heating Degree Days 1 0  
Month to date heating degree days 4 4  
Since 1 June heating degree days 91 88  
Since 1 July heating degree days 4 4  
Cooling Degree Days 0 7  
Month to date cooling degree days 229 167  
Year to date cooling degree days 367 317  
Since 1 June cooling degree days 328 287  
Growing Degree Days 14 (Base 50)    
Moisture  
Dew Point 51 °F    
Average Humidity 66    
Maximum Humidity 80    
Minimum Humidity 52    
Precipitation  
Precipitation 0.00 in 0.11 in 1.56 in (1874)
Month to date precipitation 1.00 2.87  
Year to date precipitation 26.31 19.41  
Snow  
Snow 0.00 in 0.00 in 0.00 in ()
Month to date snowfall 0.0 0.0  
Since 1 June snowfall 0.0 0.0  
Since 1 July snowfall 0.0 0.0  
Snow Depth 0.00 in    
Sea Level Pressure  
Sea Level Pressure 30.05 in    
Wind  
Wind Speed 7 mph (NE)    
Max Wind Speed 15 mph    
Max Gust Speed 21 mph    
Visibility 10 miles    
Events      
T = Trace of Precipitation, MM = Missing Value Source: NWS Daily Summary

Daily Weather History Graph

Daily Weather History Graph

Search for Another Location

Airport or City:

Trip Planner

Search our weather history database for the weather conditions in past years. The results will help you decide how hot, cold, wet, or windy it might be!

Date:

Astronomy

Jul. 24, 2013 Rise Set
Actual Time 5:34 AM CDT 8:20 PM CDT
Civil Twilight 5:01 AM CDT 8:53 PM CDT
Nautical Twilight 4:19 AM CDT 9:35 PM CDT
Astronomical Twilight 3:31 AM CDT 10:23 PM CDT
Moon 9:20 PM CDT (7/24) 7:59 AM CDT (7/24)
Length of Visible Light 15h 52m
Length of Day
14h 46m
Waning Gibbous, 94% of the Moon is Illuminated
Jul 24
Waning Gibbous
Jul 29
Last Quarter
Aug 6
New
Aug 14
First Quarter
Aug 20
Full

Hourly Weather History & Observations

Time (CDT) Temp. Dew Point Humidity Pressure Visibility Wind Dir Wind Speed Gust Speed Precip Events Conditions
12:52 AM 62.1 °F 50.0 °F 65% 30.00 in 10.0 mi NE 9.2 mph - N/A   Partly Cloudy
1:52 AM 62.1 °F 50.0 °F 65% 30.00 in 10.0 mi NE 9.2 mph - N/A   Partly Cloudy
2:52 AM 62.1 °F 50.0 °F 65% 30.00 in 10.0 mi NE 9.2 mph - N/A   Partly Cloudy
3:52 AM 61.0 °F 48.9 °F 64% 30.01 in 10.0 mi NNE 6.9 mph - N/A   Partly Cloudy
4:52 AM 60.1 °F 48.0 °F 64% 30.02 in 10.0 mi NNE 4.6 mph - N/A   Partly Cloudy
5:52 AM 57.9 °F 52.0 °F 81% 30.04 in 10.0 mi NNW 3.5 mph - N/A   Scattered Clouds
6:52 AM 60.1 °F 51.1 °F 72% 30.06 in 10.0 mi NW 6.9 mph - N/A   Scattered Clouds
7:52 AM 63.0 °F 52.0 °F 67% 30.06 in 10.0 mi Calm Calm - N/A   Mostly Cloudy
8:52 AM 66.0 °F 53.1 °F 63% 30.07 in 10.0 mi North 5.8 mph - N/A   Mostly Cloudy
9:52 AM 64.9 °F 53.1 °F 65% 30.07 in 10.0 mi North 9.2 mph - N/A   Mostly Cloudy
9:59 AM 64.4 °F 51.8 °F 64% 30.07 in 10.0 mi NNE 5.8 mph - N/A   Overcast
10:14 AM 69.8 °F 51.8 °F 53% 30.08 in 10.0 mi ENE 8.1 mph - N/A   Overcast
10:52 AM 66.9 °F 54.0 °F 63% 30.08 in 10.0 mi NE 8.1 mph - N/A   Overcast
11:15 AM 68.0 °F 53.6 °F 60% 30.09 in 10.0 mi NE 9.2 mph - N/A   Mostly Cloudy
11:52 AM 69.1 °F 53.1 °F 57% 30.09 in 10.0 mi NE 8.1 mph 18.4 mph N/A   Mostly Cloudy
12:52 PM 70.0 °F 52.0 °F 53% 30.08 in 10.0 mi ENE 10.4 mph - N/A   Scattered Clouds
1:52 PM 70.0 °F 53.1 °F 55% 30.07 in 10.0 mi ENE 15.0 mph - N/A   Scattered Clouds
2:52 PM 69.1 °F 51.1 °F 53% 30.06 in 10.0 mi ENE 12.7 mph 17.3 mph N/A   Scattered Clouds
3:52 PM 70.0 °F 52.0 °F 53% 30.06 in 10.0 mi ENE 8.1 mph - N/A   Scattered Clouds
4:52 PM 66.9 °F 51.1 °F 57% 30.06 in 10.0 mi ENE 9.2 mph - N/A   Scattered Clouds
5:52 PM 68.0 °F 51.1 °F 55% 30.06 in 10.0 mi East 8.1 mph - N/A   Scattered Clouds
6:52 PM 66.9 °F 48.9 °F 52% 30.06 in 10.0 mi ESE 8.1 mph - N/A   Scattered Clouds
7:52 PM 64.9 °F 50.0 °F 58% 30.05 in 10.0 mi ESE 4.6 mph - N/A   Scattered Clouds
8:52 PM 64.9 °F 48.9 °F 56% 30.05 in 10.0 mi ESE 3.5 mph - N/A   Scattered Clouds
9:52 PM 64.0 °F 50.0 °F 60% 30.05 in 10.0 mi South 3.5 mph - N/A   Clear
10:52 PM 61.0 °F 50.0 °F 67% 30.06 in 10.0 mi Calm Calm - N/A   Clear
11:52 PM 61.0 °F 51.1 °F 70% 30.06 in 10.0 mi WNW 3.5 mph - N/A   Clear